Regional Weather Roundup
Issued by NWS

Home | Current Version | Previous Version | Graphics & Text | Print | Product List | Glossary On
Versions: 1 2 3 4 5 6 7 8 9 10 11 12 13 14 15 16 17 18 19 20 21 22 23 24 25 26 27 28 29 30 31 32 33 34 35 36 37 38 39 40 41 42 43 44 45 46 47 48 49 50
000
ASUS43 KMPX 291710
RWRMN
WEATHER ROUNDUP FOR MINNESOTA
NATIONAL WEATHER SERVICE TWIN CITIES/CHANHASSEN MN
1200 PM CDT WED OCT 29 2014


NOTE: "FAIR" INDICATES FEW OR NO CLOUDS BELOW 12,000 FEET WITH NO
SIGNIFICANT WEATHER AND/OR OBSTRUCTIONS TO VISIBILITY. N/A MEANS
CURRENT SKY AND/OR WEATHER CONDITIONS ARE NOT AVAILABLE.

MNZ060>063-068>070-291800-
   Twin Cities Metro

CITY           SKY/WX    TMP DP  RH WIND       PRES   REMARKS
TWIN CITIES    CLOUDY    41  30  65 W7        30.16S
ST PAUL        CLOUDY    41  31  67 MISG      30.17S
CRYSTAL        CLOUDY    41  31  67 W7        30.15S
BLAINE         CLOUDY    43  34  70 W9        30.15R
LAKEVILLE      CLOUDY    39  30  70 W5        30.16S
EDEN PRAIRIE   CLOUDY    40  31  70 W8        30.16S
SOUTH ST PAUL  CLOUDY    42  31  64 NW7       30.16S
LAKE ELMO      CLOUDY    43  32  65 W5        30.16R
$$
MNZ001>005-007-008-013>017-022>024-027-028-291800-
   Northwest Minnesota

CITY           SKY/WX    TMP DP  RH WIND       PRES   REMARKS
BEMIDJI        CLOUDY    34  32  93 W8        30.11R WCI  27
HALLOCK        CLOUDY    36  30  80 SW3       30.09F
ROSEAU         CLOUDY    36  30  80 W5        30.09S
WARROAD        CLOUDY    36  30  80 W7        30.09R
THIEF RVR FALL CLOUDY    34  30  86 W5        30.10F WCI  30
CROOKSTON      CLOUDY    37  28  70 SW6       30.12F
FOSSTON        CLOUDY    34  30  86 W5        30.12F WCI  30
DETROIT LAKES  CLOUDY    34  30  86 W6        30.14S WCI  29
MOORHEAD       CLOUDY    37  30  75 W5        30.15F
PARK RAPIDS    CLOUDY    35  30  82 W10       30.12R WCI  27
MAHNOMEN       CLOUDY    35  29  79 W3        30.12F
$$
MNZ006-009>011-018-025>026-291800-
   North Central Minnesota

CITY           SKY/WX    TMP DP  RH WIND       PRES   REMARKS
BAUDETTE       CLOUDY    35  33  92 VRB7      30.08R WCI  29
FLAG ISLAND    CLOUDY    36  32  87 W8        30.06S
INTL FALLS     CLOUDY    37  35  92 W8        30.06S
WASKISH        CLOUDY    36  34  93 CALM      30.09S
BIG FORK       CLOUDY    37  36  93 SW5       30.09R
LONGVILLE      CLOUDY    36  30  80 SW5       30.11S
GRAND RAPIDS   CLOUDY    36  34  93 W6        30.09R
CRANE LAKE     CLOUDY    36  34  93 SW3       30.08R
ORR            CLOUDY    37  34  87 CALM      30.04S FOG
COOK           CLOUDY    36  34  93 SW5       30.07S
WALKER         CLOUDY    34  31  88 W5        30.11S WCI  30
$$
MNZ012-019>021-037-291800-
   Northeast Minnesota

CITY           SKY/WX    TMP DP  RH WIND       PRES   REMARKS
DULUTH         CLOUDY    39  32  76 NW8       30.07S
ELY            CLOUDY    37  34  87 W5        30.04S
HIBBING        CLOUDY    40  32  73 W6        30.08R
EVELETH        CLOUDY    36  32  87 NW7       30.07S
DULUTH HARBOR  CLOUDY    41  34  75 NW8       30.11S
TWO HARBORS      N/A    N/A N/A N/A W7        30.06R
SILVER BAY     SUNNY     43  34  70 W7        30.04R
GRAND MARAIS     N/A     43  31  62 CALM      30.04R
G MARAIS ARPRT PTSUNNY   37  28  70 NW8G16    30.01R
$$
MNZ029>031-032-039>041-046>048-054>057-064-291800-
   West Central Minnesota

CITY           SKY/WX    TMP DP  RH WIND       PRES   REMARKS
FERGUS FALLS   CLOUDY    36  27  69 W9        30.17S
WHEATON        CLOUDY    36  27  69 W6        30.19S
MORRIS         SUNNY     37  30  75 NW3       30.16S
ALEXANDRIA     CLOUDY    36  29  75 W12       30.16R
ELBOW LAKE     CLOUDY    35  29  78 W6        30.16S WCI  30
WADENA         CLOUDY    34  28  80 W6        30.13S WCI  29
GLENWOOD       SUNNY     36  28  75 W9        30.15S
APPLETON       CLOUDY    39  30  70 NW5       30.17F
BENSON         CLOUDY    37  30  75 NW7       30.17F
ORTONVILLE     CLOUDY    37  27  65 W6        30.17S
MADISON        MOSUNNY   41  30  65 W5        30.17F
WILLMAR        CLOUDY    37  28  70 NW9       30.18S
$$
MNZ033>034-036-042>043-049>051-058-059-291800-
   Central Minnesota

CITY           SKY/WX    TMP DP  RH WIND       PRES   REMARKS
ST CLOUD       CLOUDY    39  30  70 W9        30.15S
SAUK CENTRE    CLOUDY    36  30  79 W10       30.16S
PAYNESVILLE    CLOUDY    35  30  83 W9        30.17R WCI  27
AITKIN         CLOUDY    39  32  75 SW5       30.10S
PINE RIVER     CLOUDY    36  30  80 W6        30.15S
BRAINERD       CLOUDY    34  31  88 W8        30.14R WCI  27
STAPLES        CLOUDY    36  30  80 W9        30.14R
LONG PRAIRIE   CLOUDY    36  30  80 W6        30.14S
LITTLE FALLS   CLOUDY    34  30  86 W5        30.15R WCI  30
LITCHFIELD     CLOUDY    37  34  87 NW5       30.17S
BUFFALO        CLOUDY    38  31  75 W8        30.17F
MAPLE LAKE     CLOUDY    38  33  80 W7        30.17S
$$
MNZ037-044-045-052-053-291800-
   East Central Minnesota

CITY           SKY/WX    TMP DP  RH WIND       PRES   REMARKS
PRINCETON      CLOUDY    41  32  70 SW5       30.15S
MORA           CLOUDY    37  32  81 W6        30.14S
CAMBRIDGE      CLOUDY    41  30  65 SW5       30.13R
RUSH CITY      CLOUDY    41  32  71 CALM      30.13S
MOOSE LAKE     CLOUDY    39  32  75 NW5       30.09S
HINCKLEY       CLOUDY    41  34  75 N5        30.12S
CLOQUET        CLOUDY    39  32  75 NW7       30.08S
MCGREGOR       CLOUDY    37  32  81 W5        30.12R
$$
MNZ071>073-080-081-089-090-097-098-291800-
   Southwest Minnesota

CITY           SKY/WX    TMP DP  RH WIND       PRES   REMARKS
MONTEVIDEO     CLOUDY    39  34  81 NW3       30.18F
GRANITE FALLS  CLOUDY    38  31  73 W8        30.19F
CANBY          CLOUDY    39  32  75 CALM      30.18F
MARSHALL       CLOUDY    39  28  65 N3        30.17S
REDWOOD FALLS  CLOUDY    40  30  67 NW9       30.18S
OLIVIA         MOSUNNY   39  32  75 W9        30.17S
PIPESTONE      SUNNY     41  30  65 W7        30.16R
WINDOM         MOSUNNY   43  30  61 W8        30.17F
WORTHINGTON    SUNNY     43  30  61 W7        30.18S
JACKSON        SUNNY     43  30  61 NW10      30.18S
TRACY          PTSUNNY   42  31  65 CALM      30.17F
SLAYTON        SUNNY     41  30  64 CALM      30.17S
$$
MNZ065>067-074>077-082>085-091>093-291800-
   South Central Minnesota

CITY           SKY/WX    TMP DP  RH WIND       PRES   REMARKS
MANKATO        CLOUDY    37  27  65 W7        30.18S
NEW ULM        SUNNY     39  30  70 N6        30.18F
ST JAMES       CLOUDY    43  30  61 W9        30.19F
FAIRMONT       CLOUDY    43  25  49 NW9       30.19S
GLENCOE        CLOUDY    40  32  75 NW6       30.17S
FARIBAULT      CLOUDY    39  30  70 NW3       30.17S
OWATONNA       SUNNY     39  30  70 NW8       30.17S
WASECA         CLOUDY    37  28  70 W6        30.20R
ALBERT LEA     CLOUDY    39  30  70 CALM      30.17S
$$
MNZ078>079-086>088-094>096-291800-
   Southeast Minnesota

CITY           SKY/WX    TMP DP  RH WIND       PRES   REMARKS
ROCHESTER      CLOUDY    39  31  72 N9        30.16R
RED WING       CLOUDY    45  30  57 W7        30.14S
STANTON        CLOUDY    41  31  68 NW5       30.15S
DODGE CENTER   CLOUDY    39  32  75 W10       30.16R
WINONA         CLOUDY    43  32  65 NW8       30.15S
AUSTIN         CLOUDY    39  30  70 NW8       30.17R
PRESTON        CLOUDY    38  31  74 NW9       30.16R
$$
ABBREVIATIONS USED IN REMARKS
   TC - TEMPERATURES IN CELSIUS
  WCI - WIND CHILL INDEX
   HX - HEAT INDEX
  VSB - VISIBILITY
$$



USA.gov is the U.S. government's official web portal to all federal, state and local government web resources and services.